Home > Weather > Montevideo > Past weeks

Flag for Uruguay Past Weather in Montevideo, Uruguay — Yesterday and Last 2 Weeks

Now
48 °F

More clouds than sun.


Feels Like: 44 °F
Forecast: 46 / 52 °F
Wind: 9 mph from South

Location: Carrasco

Current Time: Jul 24, 2016 at 8:00:12 AM

Latest Report: Jul 24, 2016 at 7:00 AM


Visibility: N/A

Pressure: 30.15 "Hg

Humidity: 82%

Dew Point: 43 °F

Location of MontevideoLocation

Past Weather in Montevideo — Graph

°F

Montevideo Temperature Yesterday

Maximum temperature yesterday: 57 °F (at 3:00 PM)
Minimum temperature yesterday: 41 °F (at 6:00 AM)
Average temperature yesterday: 48 °F

High & Low Weather Summary for the Past Weeks

 TemperatureHumidityPressure
High63 °F (Jul 10, 1:00 PM)100% (Jul 10, 12:00 AM)30.39 "Hg (Jul 10, 12:00 AM)
Low34 °F (Jul 21, 4:00 AM)50% (Jul 18, 2:00 PM)29.74 "Hg (Jul 11, 5:00 PM)
Average49 °F81%30.09 "Hg
* Reported Jul 9 6:00 AM — Jul 24 6:00 AM, Montevideo, Weather by CustomWeather, © 2016

Note: Actual official high and low records may vary slightly from our data, if they occured in-between our weather recording intervals... More about our weather records

Advertising

Montevideo Weather History for the Previous 24 Hours

Scroll right to see more
 ConditionsComfort  
Time TempWeatherWind HumidityBarometerVisibility
6:00 AM
Sun, Jul 24
50 °FOvercast.10 mph82%30.12 "HgN/A
5:00 AM50 °FOvercast.12 mph88%30.09 "HgN/A
4:00 AM50 °FPassing clouds.7 mph88%30.07 "HgN/A
3:00 AM50 °FPassing clouds.8 mph88%30.07 "HgN/A
2:00 AM50 °FOvercast.12 mph94%30.07 "HgN/A
1:00 AM48 °FFog.3 mph94%30.04 "Hg3 mi
12:00 AM45 °FFog.3 mph93%30.04 "Hg3 mi
11:00 PM
Sat, Jul 23
46 °FFog.3 mph87%30.01 "Hg3 mi
10:00 PM48 °FFog.3 mph87%30.01 "Hg3 mi
9:00 PM48 °FClear.3 mph87%29.98 "Hg10 mi
8:00 PM50 °FClear.3 mph88%29.98 "Hg10 mi
7:00 PM52 °FClear.2 mph82%29.95 "Hg10 mi
6:00 PM54 °FClear.3 mph77%29.95 "Hg5 mi
5:00 PM55 °FClear.2 mph72%29.92 "Hg5 mi
4:00 PM57 °FSunny.3 mph63%29.95 "Hg10 mi
3:00 PM57 °FSunny.6 mph67%29.95 "Hg10 mi
2:00 PM55 °FSunny.6 mph67%29.95 "Hg10 mi
1:00 PM54 °FSunny.7 mph72%29.98 "Hg10 mi
12:00 PM54 °FSunny.8 mph72%30.01 "Hg10 mi
11:00 AM52 °FSunny.7 mph77%30.01 "Hg10 mi
10:00 AM45 °FSunny.6 mph93%30.01 "Hg10 mi
9:00 AM43 °FSunny.5 mph93%30.01 "Hg10 mi
8:00 AM41 °FSunny.5 mph87%30.01 "Hg10 mi
Weather by CustomWeather, © 2016

See weather overviewHow to use our weather pages